Tracking 19242 objects as of 20-Sep-2018
HD Live streaming from Space Station
objects crossing your sky now

FENGYUN 1C DEB

Track FENGYUN 1C DEB now!
10-day predictions


NORAD ID: 31244
Int'l Code: 1999-025BMA
Perigee: 813.2 km
Apogee: 966.9 km
Inclination: 99.3 °
Period: 102.6 minutes
Semi major axis: 7261 km
RCS: 0.0089 m2 (small)
Launch date: May 10, 1999
Source: People's Republic of China (PRC)
Launch site: Taiyaun Space Center, China (TSC)

Note: This is SATELLITE DEBRIS
aabbcc
Your satellite tracking list
Your tracking list is empty




NASA's NSSDC Master Catalog

Two Line Element Set (TLE):
1 31244U 99025BMA 18259.24142668 -.00000051 +00000-0 -20206-5 0  9990
2 31244 099.2736 257.4399 0105847 292.5590 066.4402 14.03154873586702
Source of the keplerian elements: AFSPC